GW1321 Weather Reports


time (UTC)temp
C
wind
direction
speed
KPH
gust
KPH
rain 1hr
cm
rain 24hr
cm
rain mn
cm
humidity
%
barometer
mb
20260505140528 15 0 0.0 4.8 0.00 1.55 1.55 96 1006.5
20260505125027 15 0 0.0 1.6 0.00 1.55 1.55 96 1005.7
20260505124544 15 0 0.0 1.6 0.00 1.55 1.55 95 1005.6
20260505124028 15 0 0.0 1.6 0.00 1.55 1.55 95 1005.6
20260505123528 15 0 0.0 3.2 0.00 1.55 1.55 95 1005.4
20260505123055 15 0 0.0 3.2 0.00 1.55 1.55 95 1005.2
20260505122527 15 0 0.0 1.6 0.00 1.55 1.55 95 1005.2
20260505122027 15 0 0.0 1.6 0.00 1.55 1.55 95 1005.2
20260505121553 15 360 0.0 1.6 0.00 1.55 1.55 95 1005.1
20260505121028 15 0 0.0 3.2 0.00 1.55 1.55 95 1005.0
20260505120527 15 0 0.0 3.2 0.00 1.55 1.55 95 1005.1
20260505120044 15 0 0.0 3.2 0.00 1.55 1.55 95 1005.0
20260505115527 15 0 0.0 1.6 0.00 1.55 1.55 95 1005.1
20260505115028 15 0 0.0 1.6 0.00 1.55 1.55 95 1005.1
20260505114545 15 0 0.0 1.6 0.00 1.55 1.55 95 1004.9
20260505114026 15 0 0.0 1.6 0.03 1.55 1.55 95 1004.7
20260505113526 15 0 0.0 1.6 0.03 1.55 1.55 95 1004.9
20260505113043 15 0 0.0 1.6 0.03 1.55 1.55 95 1005.0
20260505112528 15 0 0.0 1.6 0.03 1.55 1.55 95 1004.9
20260505112028 15 0 0.0 3.2 0.03 1.55 1.55 95 1004.9
20260505111545 15 0 0.0 4.8 0.03 1.55 1.55 95 1005.0
20260505111030 15 360 0.0 4.8 0.05 1.55 1.55 95 1005.1
20260505110527 15 0 0.0 1.6 0.05 1.55 1.55 95 1005.1
20260505102027 15 0 0.0 3.2 0.28 1.52 1.52 95 1006.0
20260505101552 15 0 0.0 3.2 0.25 1.47 1.47 95 1006.2
20260505101028 15 360 0.0 3.2 0.28 1.47 1.47 95 1006.2
20260505100531 15 0 0.0 3.2 0.38 1.47 1.47 95 1006.4
20260505100137 15 0 0.0 1.6 0.41 1.47 1.47 95 1006.2
20260505095528 15 0 0.0 1.6 0.41 1.42 1.42 95 1006.6
20260505095027 15 0 0.0 1.6 0.51 1.42 1.42 95 1006.5
20260505094541 15 0 0.0 1.6 0.51 1.40 1.40 95 1006.2
20260505094027 15 0 0.0 1.6 0.53 1.40 1.40 94 1006.2
20260505093528 15 0 0.0 1.6 0.51 1.37 1.37 95 1005.9
20260505093043 15 360 0.0 1.6 0.48 1.32 1.32 94 1006.5
20260505092528 15 360 0.0 1.6 0.43 1.24 1.24 95 1006.5
20260505092028 15 360 0.0 1.6 0.48 1.24 1.24 94 1006.5
20260505091540 15 360 0.0 3.2 0.51 1.24 1.24 94 1006.2
20260505091030 15 0 0.0 3.2 0.48 1.22 1.22 94 1005.7
20260505090528 15 0 0.0 3.2 0.38 1.09 1.09 94 1005.7
20260505090051 15 0 1.6 3.2 0.46 1.07 1.07 94 1006.4
20260505085527 15 360 0.0 3.2 0.48 0.99 0.99 94 1006.0
20260505085030 15 0 0.0 1.6 0.46 0.89 0.89 94 1005.4
20260505084549 15 0 0.0 3.2 0.64 0.89 0.89 94 1005.4
20260505084029 15 360 0.0 3.2 0.71 0.86 0.86 94 1005.4
20260505083526 15 360 0.0 3.2 0.74 0.86 0.86 94 1006.0
20260505083049 15 0 0.0 1.6 0.74 0.84 0.84 93 1005.6
20260505082530 15 0 0.0 1.6 0.74 0.81 0.81 93 1006.0
20260505082030 15 0 0.0 3.2 0.71 0.76 0.76 93 1006.4
20260505081545 15 0 0.0 3.2 0.69 0.74 0.74 93 1006.2
20260505081034 15 360 1.6 3.2 0.69 0.74 0.74 93 1006.1
20260505080530 15 0 0.0 3.2 0.66 0.69 0.69 92 1006.0
20260505080042 15 360 1.6 3.2 0.58 0.61 0.61 92 1006.1
20260505075532 15 360 0.0 4.8 0.46 0.48 0.48 92 1006.9
20260505075029 15 0 1.6 4.8 0.41 0.43 0.43 92 1006.6
20260505074540 15 0 0.0 4.8 0.23 0.23 0.23 92 1006.9
20260505074026 15 360 1.6 4.8 0.15 0.15 0.15 91 1006.5
20260505073530 15 360 1.6 4.8 0.10 0.10 0.10 91 1006.0
20260505073044 15 360 0.0 3.2 0.10 0.10 0.10 91 1006.1
20260505072531 15 0 0.0 3.2 0.08 0.08 0.08 90 1005.8
20260505072030 15 360 0.0 3.2 0.05 0.05 0.05 89 1005.7
20260505071542 16 0 0.0 0.0 0.05 0.05 0.05 89 1006.0
20260505071030 16 0 0.0 3.2 0.05 0.05 0.05 88 1006.0
20260505070535 16 0 0.0 3.2 0.03 0.03 0.03 87 1006.1
20260505070046 16 0 0.0 3.2 0.03 0.03 0.03 86 1006.2
20260505065531 16 0 0.0 3.2 0.03 0.03 0.03 85 1006.3
20260505065033 17 0 0.0 3.2 0.03 0.03 0.03 82 1005.4
20260505064547 17 360 0.0 1.6 0.00 0.00 0.00 81 1005.4
20260505064030 17 0 0.0 0.0 0.00 0.00 0.00 80 1005.6
20260505063530 17 0 0.0 1.6 0.00 0.00 0.00 77 1005.7
20260505063046 17 0 0.0 3.2 0.00 0.00 0.00 76 1006.0
20260505062533 17 0 0.0 4.8 0.00 0.00 0.00 75 1006.1
20260505062030 17 0 1.6 4.8 0.00 0.00 0.00 75 1006.2
20260505061546 17 360 1.6 4.8 0.00 0.00 0.00 75 1006.3
20260505061032 17 360 1.6 4.8 0.00 0.00 0.00 76 1006.2
20260505060530 17 360 0.0 3.2 0.00 0.00 0.00 76 1006.3
20260505060045 17 0 0.0 1.6 0.00 0.00 0.00 76 1006.3
20260505055533 17 0 0.0 1.6 0.00 0.00 0.00 77 1006.2
20260505055031 17 0 0.0 3.2 0.00 0.00 0.00 76 1006.3
20260505054545 17 0 0.0 3.2 0.00 0.00 0.00 77 1006.2
20260505054033 17 360 0.0 3.2 0.00 0.00 0.00 76 1006.1
20260505053531 17 360 0.0 3.2 0.00 0.00 0.00 76 1006.1
20260505053055 17 0 0.0 3.2 0.00 0.00 0.00 76 1006.0
20260505052531 17 0 0.0 3.2 0.00 0.00 0.00 76 1006.1
20260505052030 17 0 0.0 1.6 0.00 0.00 0.00 76 1006.0
20260505051547 17 0 0.0 1.6 0.00 0.00 0.00 76 1005.8
20260505051030 17 0 0.0 3.2 0.00 0.00 0.00 75 1005.7
20260505050534 17 360 0.0 3.2 0.00 0.00 0.00 75 1005.9
20260505041541 17 0 0.0 3.2 0.00 0.00 0.00 74 1006.7
20260505041029 17 0 0.0 3.2 0.00 0.00 0.00 74 1006.6
20260505040527 17 0 0.0 1.6 0.00 0.00 0.00 74 1006.8
20260505040042 17 0 0.0 1.6 0.00 0.00 0.00 73 1007.0
20260505035530 18 0 0.0 3.2 0.00 0.00 0.00 73 1007.0
20260505035030 18 0 0.0 3.2 0.00 0.00 0.00 73 1006.8
20260505034544 18 127 0.0 3.2 0.00 0.00 0.00 73 1006.9
20260505034030 18 0 0.0 3.2 0.00 0.00 0.00 73 1006.8
20260505033530 18 128 0.0 3.2 0.00 0.00 0.00 73 1007.0
20260505033104 18 0 0.0 3.2 0.00 0.00 0.00 72 1007.0
20260505032530 18 0 0.0 4.8 0.00 0.00 0.00 72 1007.1
20260505032029 18 248 0.0 4.8 0.00 0.00 0.00 72 1007.2
20260505031541 18 0 0.0 1.6 0.00 0.00 0.00 72 1007.1
20260505031029 18 0 0.0 1.6 0.00 0.00 0.00 72 1007.2
20260505030530 18 0 0.0 1.6 0.00 0.00 0.00 72 1007.2
20260505030043 18 0 0.0 1.6 0.00 0.00 0.00 72 1007.2
20260505025531 18 0 0.0 1.6 0.00 0.00 0.00 72 1007.1
20260505025026 18 0 0.0 1.6 0.00 0.00 0.00 71 1007.1
20260505024540 18 0 0.0 1.6 0.00 0.00 0.00 71 1007.1
20260505024027 18 0 0.0 1.6 0.00 0.00 0.00 70 1007.0
20260505023530 18 0 0.0 1.6 0.00 0.00 0.00 70 1007.0
20260505023047 19 0 0.0 1.6 0.00 0.00 0.00 69 1006.9
20260505022530 19 0 0.0 3.2 0.00 0.00 0.00 69 1006.8
20260505022029 19 0 0.0 3.2 0.00 0.00 0.00 69 1006.8
20260505021542 19 0 0.0 3.2 0.00 0.00 0.00 68 1006.8
20260505021033 19 0 0.0 3.2 0.00 0.00 0.00 68 1006.7
20260505020530 20 0 0.0 3.2 0.00 0.00 0.00 67 1006.4
20260505020050 20 256 0.0 3.2 0.00 0.00 0.00 67 1006.5
20260505015530 20 256 0.0 3.2 0.00 0.00 0.00 67 1006.5
20260505015030 20 256 0.0 3.2 0.00 0.00 0.00 66 1006.3
20260505014542 20 360 0.0 4.8 0.00 0.00 0.00 66 1006.2
20260505014033 20 267 0.0 4.8 0.00 0.00 0.00 66 1006.1
20260505013529 20 57 1.6 4.8 0.00 0.00 0.00 65 1006.1
20260505013040 20 0 1.6 3.2 0.00 0.00 0.00 65 1005.9
20260505012532 20 0 0.0 3.2 0.00 0.00 0.00 64 1005.9
20260505012030 20 215 0.0 4.8 0.00 0.00 0.00 64 1005.9
20260505011540 20 0 0.0 4.8 0.00 0.00 0.00 63 1005.8
20260505011030 21 0 0.0 6.4 0.00 0.00 0.00 63 1005.9
20260505010530 21 219 1.6 6.4 0.00 0.00 0.00 62 1005.9
20260505010045 21 222 1.6 6.4 0.00 0.00 0.00 62 1005.7
20260505005530 21 238 1.6 4.8 0.00 0.00 0.00 62 1005.8
20260505005030 21 232 1.6 4.8 0.00 0.00 0.00 61 1005.7
20260505004547 21 232 1.6 6.4 0.00 0.00 0.00 61 1005.8
20260505004030 21 226 1.6 9.7 0.00 0.00 0.00 60 1005.8
20260505003529 21 228 1.6 11.3 0.00 0.00 0.00 60 1005.7
20260505003040 21 229 3.2 11.3 0.00 0.00 0.00 60 1005.7
20260505002530 21 265 3.2 6.4 0.00 0.00 0.00 61 1005.8
20260505002031 22 230 1.6 4.8 0.00 0.00 0.00 61 1005.6
20260505001541 22 212 1.6 4.8 0.00 0.00 0.00 61 1005.5
20260505001034 22 211 1.6 4.8 0.00 0.00 0.00 60 1005.5
20260505000530 22 213 1.6 4.8 0.00 0.00 0.00 60 1005.6
20260505000044 22 180 1.6 4.8 0.00 0.00 0.00 59 1005.5
20260504235530 22 231 1.6 4.8 0.00 0.00 0.00 59 1005.6
20260504235030 22 240 1.6 6.4 0.00 0.00 0.00 59 1005.6
20260504234600 22 250 1.6 6.4 0.00 0.00 0.00 59 1005.5
20260504234032 23 219 3.2 6.4 0.00 0.00 0.00 58 1005.5
20260504233530 23 45 1.6 8.0 0.00 0.00 0.00 58 1005.4
20260504233043 23 225 3.2 8.0 0.00 0.00 0.00 57 1005.4
20260504232530 23 217 1.6 8.0 0.00 0.00 0.00 57 1005.5
20260504232029 23 238 3.2 6.4 0.00 0.00 0.00 56 1005.6
20260504231550 23 266 3.2 6.4 0.00 0.00 0.00 55 1005.5
20260504231032 23 254 1.6 6.4 0.00 0.00 0.00 57 1005.6
20260504230531 23 202 1.6 6.4 0.00 0.00 0.00 56 1005.6
20260504230043 23 360 0.0 6.4 0.00 0.00 0.00 56 1005.5
20260504225532 23 237 3.2 6.4 0.00 0.00 0.00 55 1005.5
20260504225033 23 207 1.6 8.0 0.00 0.00 0.00 56 1005.5
20260504224541 23 256 3.2 8.0 0.00 0.00 0.00 55 1005.6
20260504224030 23 202 3.2 6.4 0.00 0.00 0.00 55 1005.7
20260504223532 23 228 3.2 9.7 0.00 0.00 0.00 54 1005.7
20260504223041 23 223 3.2 9.7 0.00 0.00 0.00 55 1005.8
20260504222530 23 234 3.2 9.7 0.00 0.00 0.00 56 1005.8
20260504222030 24 211 3.2 8.0 0.00 0.00 0.00 54 1005.8
20260504221547 24 219 1.6 9.7 0.00 0.00 0.00 55 1005.9
20260504221032 24 231 3.2 9.7 0.00 0.00 0.00 54 1006.0
20260504220530 24 243 3.2 8.0 0.00 0.00 0.00 55 1006.0
20260504220047 24 269 3.2 11.3 0.00 0.00 0.00 54 1006.1
20260504215529 24 220 4.8 11.3 0.00 0.00 0.00 53 1006.1
20260504215031 24 216 3.2 8.0 0.00 0.00 0.00 52 1006.1
20260504214548 24 252 1.6 8.0 0.00 0.00 0.00 53 1006.1
20260504214032 24 242 3.2 8.0 0.00 0.00 0.00 52 1006.1
20260504213531 24 165 3.2 11.3 0.00 0.00 0.00 54 1006.2
20260504213048 24 198 3.2 11.3 0.00 0.00 0.00 52 1006.3
20260504212531 24 220 4.8 11.3 0.00 0.00 0.00 52 1006.3
20260504212034 24 215 4.8 14.5 0.00 0.00 0.00 51 1006.3
20260504211540 24 246 4.8 14.5 0.00 0.00 0.00 51 1006.4
20260504211030 24 235 4.8 14.5 0.00 0.00 0.00 51 1006.5
20260504210530 24 240 4.8 14.5 0.00 0.00 0.00 50 1006.5
20260504210055 25 254 4.8 14.5 0.00 0.00 0.00 49 1006.6
20260504205531 25 198 4.8 11.3 0.00 0.00 0.00 51 1006.6
20260504205029 25 275 3.2 12.9 0.00 0.00 0.00 50 1006.5
20260504204619 25 240 6.4 12.9 0.00 0.00 0.00 49 1006.7
20260504204030 25 217 4.8 12.9 0.00 0.00 0.00 51 1006.8
20260504203534 25 360 4.8 11.3 0.00 0.00 0.00 50 1006.9
20260504203044 25 259 3.2 12.9 0.00 0.00 0.00 50 1007.0
20260504202531 25 360 4.8 12.9 0.00 0.00 0.00 51 1007.0
20260504202030 25 360 4.8 12.9 0.00 0.00 0.00 50 1007.1
20260504201542 25 360 3.2 12.9 0.00 0.00 0.00 51 1007.0
20260504201030 25 360 4.8 12.9 0.00 0.00 0.00 51 1007.1
20260504200530 25 360 3.2 11.3 0.00 0.00 0.00 52 1007.2
20260504200042 25 360 4.8 12.9 0.00 0.00 0.00 51 1007.3
20260504195530 25 360 6.4 14.5 0.00 0.00 0.00 50 1007.4
20260504195031 25 360 4.8 14.5 0.00 0.00 0.00 51 1007.4
20260504194551 25 360 4.8 17.7 0.00 0.00 0.00 50 1007.5
20260504194031 25 360 3.2 17.7 0.00 0.00 0.00 52 1007.5
20260504193530 25 273 4.8 16.1 0.00 0.00 0.00 52 1007.5
20260504193045 25 256 6.4 16.1 0.00 0.00 0.00 51 1007.6
20260504192531 25 360 4.8 9.7 0.00 0.00 0.00 52 1007.7
20260504192031 25 360 3.2 12.9 0.00 0.00 0.00 52 1007.7
20260504191544 25 273 4.8 12.9 0.00 0.00 0.00 51 1007.8
20260504191033 25 360 4.8 14.5 0.00 0.00 0.00 52 1007.8
20260504190531 25 360 4.8 16.1 0.00 0.00 0.00 52 1007.8
20260504190050 25 360 4.8 16.1 0.00 0.00 0.00 53 1007.8
20260504185530 25 244 4.8 16.1 0.00 0.00 0.00 53 1007.9
20260504185030 25 223 4.8 16.1 0.00 0.00 0.00 53 1007.8
20260504184558 24 208 3.2 14.5 0.00 0.00 0.00 54 1007.9
20260504184030 24 248 6.4 14.5 0.00 0.00 0.00 53 1008.2
20260504183530 23 242 6.4 14.5 0.00 0.00 0.00 55 1008.2
20260504183040 24 201 4.8 14.5 0.00 0.00 0.00 55 1008.1
20260504182532 24 256 4.8 14.5 0.00 0.00 0.00 55 1008.2
20260504182034 23 360 6.4 14.5 0.00 0.00 0.00 55 1008.4
20260504181542 23 227 6.4 14.5 0.00 0.00 0.00 54 1008.5
20260504181030 23 360 6.4 14.5 0.00 0.00 0.00 55 1008.5
20260504180530 23 246 4.8 12.9 0.00 0.00 0.00 55 1008.5
20260504180042 23 360 4.8 12.9 0.00 0.00 0.00 56 1008.3
20260504175531 23 250 4.8 14.5 0.00 0.00 0.00 56 1008.6
20260504175030 23 261 6.4 14.5 0.00 0.00 0.00 54 1008.7
20260504174542 23 242 6.4 17.7 0.00 0.00 0.00 55 1008.8
20260504174031 23 227 8.0 17.7 0.00 0.00 0.00 54 1008.7
20260504173533 23 238 4.8 12.9 0.00 0.00 0.00 55 1008.7
20260504173038 23 283 3.2 12.9 0.00 0.00 0.00 56 1008.7
20260504172530 23 297 4.8 14.5 0.00 0.00 0.00 54 1008.7
20260504172030 23 360 6.4 14.5 0.00 0.00 0.00 54 1008.7
20260504171546 23 252 6.4 14.5 0.00 0.00 0.00 54 1008.7
20260504171031 23 360 3.2 16.1 0.00 0.00 0.00 55 1008.7
20260504170531 23 238 4.8 16.1 0.00 0.00 0.00 52 1008.9
20260504151034 21 255 8.0 14.5 0.00 0.00 0.00 56 1009.7
20260504150530 21 198 4.8 16.1 0.00 0.00 0.00 56 1009.7